Tracking 19709 objects as of 19-Jun-2019
HD Live streaming from Space Station
objects crossing your sky now

PORCUPINE 1

Track PORCUPINE 1 now!
10-day predictions
PORCUPINE 1 is classified as:


NORAD ID: 1272
Int'l Code: 1965-016H
Perigee: 903.3 km
Apogee: 938.9 km
Inclination: 70.1 °
Period: 103.3 minutes
Semi major axis: 7292 km
RCS: 0.248 m2 (medium)
Launch date: March 9, 1965
Source: United States (US)
Launch site: AIR FORCE WESTERN TEST RANGE (AFWTR)
aabbcc
Your satellite tracking list
Your tracking list is empty




NASA's NSSDC Master Catalog

Two Line Element Set (TLE):
1  1272U 65016H   19170.47422079 -.00000031  00000-0  16181-4 0  9999
2  1272  70.0803 274.9581 0024414 236.7180 123.1586 13.94207394760742
Source of the keplerian elements: AFSPC